| time (UTC) | temp F | wind direction | speed MPH | gust MPH | rain 1hr in | rain 24hr in | rain mn in | humidity % | barometer mb |
| 20260507051103 | 54 | 128 | 1.0 | 2.0 | 0.00 | 0.00 | 0.00 | 85 | 1020.8 |
| 20260507050600 | 54 | 122 | 3.0 | 9.0 | 0.00 | 0.00 | 0.00 | 84 | 1020.5 |
| 20260507050056 | 54 | 164 | 2.0 | 6.0 | 0.00 | 0.00 | 0.00 | 84 | 1020.7 |
| 20260507045553 | 54 | 104 | 2.0 | 7.0 | 0.00 | 0.00 | 0.00 | 84 | 1020.9 |
| 20260507045051 | 54 | 130 | 2.0 | 5.0 | 0.00 | 0.00 | 0.00 | 83 | 1020.8 |
| 20260507044547 | 54 | 109 | 2.0 | 7.0 | 0.00 | 0.00 | 0.00 | 83 | 1020.7 |
| 20260507044044 | 54 | 181 | 3.0 | 5.0 | 0.00 | 0.00 | 0.00 | 83 | 1021.0 |
| 20260507043539 | 54 | 61 | 6.0 | 8.0 | 0.00 | 0.00 | 0.00 | 83 | 1020.9 |
| 20260507043037 | 54 | 152 | 2.0 | 3.0 | 0.00 | 0.00 | 0.00 | 83 | 1020.9 |
| 20260507042533 | 54 | 91 | 5.0 | 6.0 | 0.00 | 0.00 | 0.00 | 82 | 1020.9 |
| 20260507042029 | 55 | 90 | 1.0 | 5.0 | 0.00 | 0.00 | 0.00 | 82 | 1021.0 |
| 20260507041526 | 55 | 125 | 3.0 | 6.0 | 0.00 | 0.00 | 0.00 | 82 | 1020.8 |
| 20260507041023 | 55 | 143 | 1.0 | 5.0 | 0.00 | 0.00 | 0.00 | 82 | 1020.7 |
| 20260507040519 | 55 | 118 | 3.0 | 5.0 | 0.00 | 0.00 | 0.00 | 81 | 1020.7 |
| 20260507040015 | 55 | 76 | 1.0 | 6.0 | 0.00 | 0.00 | 0.00 | 81 | 1020.7 |
| 20260507035511 | 55 | 89 | 3.0 | 5.0 | 0.00 | 0.00 | 0.00 | 81 | 1020.6 |
| 20260507035008 | 55 | 81 | 1.0 | 2.0 | 0.00 | 0.00 | 0.00 | 80 | 1020.7 |
| 20260507034505 | 55 | 75 | 5.0 | 7.0 | 0.00 | 0.00 | 0.00 | 80 | 1020.5 |
| 20260507034003 | 55 | 113 | 2.0 | 5.0 | 0.00 | 0.00 | 0.00 | 79 | 1020.6 |
| 20260507033501 | 56 | 92 | 1.0 | 3.0 | 0.00 | 0.00 | 0.00 | 79 | 1020.3 |
| 20260507032957 | 56 | 129 | 0.0 | 2.0 | 0.00 | 0.00 | 0.00 | 79 | 1020.5 |
| 20260507032454 | 56 | 112 | 1.0 | 2.0 | 0.00 | 0.00 | 0.00 | 79 | 1020.4 |
| 20260507031950 | 56 | 144 | 0.0 | 3.0 | 0.00 | 0.00 | 0.00 | 79 | 1020.6 |
| 20260507031447 | 56 | 153 | 3.0 | 3.0 | 0.00 | 0.00 | 0.00 | 79 | 1020.7 |
| 20260507030944 | 56 | 171 | 3.0 | 3.0 | 0.00 | 0.00 | 0.00 | 78 | 1020.4 |
| 20260507030441 | 56 | 152 | 1.0 | 5.0 | 0.00 | 0.00 | 0.00 | 78 | 1020.4 |
| 20260507025938 | 56 | 157 | 1.0 | 3.0 | 0.00 | 0.00 | 0.00 | 78 | 1020.4 |
| 20260507025435 | 56 | 150 | 3.0 | 3.0 | 0.00 | 0.00 | 0.00 | 79 | 1020.3 |
| 20260507024933 | 56 | 150 | 2.0 | 2.0 | 0.00 | 0.00 | 0.00 | 80 | 1020.3 |
| 20260507024430 | 56 | 175 | 1.0 | 5.0 | 0.00 | 0.00 | 0.00 | 80 | 1020.5 |
| 20260507023926 | 56 | 157 | 3.0 | 3.0 | 0.00 | 0.00 | 0.00 | 78 | 1020.3 |
| 20260507023423 | 56 | 147 | 1.0 | 2.0 | 0.00 | 0.00 | 0.00 | 78 | 1020.2 |
| 20260507022920 | 56 | 128 | 2.0 | 3.0 | 0.00 | 0.00 | 0.00 | 78 | 1020.1 |
| 20260507022417 | 56 | 165 | 3.0 | 5.0 | 0.00 | 0.00 | 0.00 | 77 | 1020.3 |
| 20260507021913 | 56 | 117 | 3.0 | 5.0 | 0.00 | 0.00 | 0.00 | 77 | 1020.1 |
| 20260507021408 | 56 | 126 | 2.0 | 5.0 | 0.00 | 0.00 | 0.00 | 77 | 1020.1 |
| 20260507020906 | 56 | 120 | 1.0 | 2.0 | 0.00 | 0.00 | 0.00 | 77 | 1020.1 |
| 20260507020402 | 56 | 122 | 2.0 | 6.0 | 0.00 | 0.00 | 0.00 | 77 | 1020.3 |
| 20260507015859 | 56 | 116 | 2.0 | 5.0 | 0.00 | 0.00 | 0.00 | 77 | 1020.3 |
| 20260507015358 | 56 | 105 | 6.0 | 7.0 | 0.00 | 0.00 | 0.00 | 77 | 1020.1 |
| 20260507014854 | 56 | 124 | 3.0 | 5.0 | 0.00 | 0.00 | 0.00 | 77 | 1020.0 |
| 20260507014350 | 56 | 123 | 3.0 | 7.0 | 0.00 | 0.00 | 0.00 | 77 | 1020.2 |
| 20260507013847 | 56 | 102 | 4.0 | 6.0 | 0.00 | 0.00 | 0.00 | 77 | 1019.9 |
| 20260507013344 | 56 | 166 | 3.0 | 5.0 | 0.00 | 0.00 | 0.00 | 77 | 1020.1 |
| 20260507012842 | 56 | 132 | 0.0 | 6.0 | 0.00 | 0.00 | 0.00 | 77 | 1020.2 |
| 20260507012337 | 56 | 78 | 2.0 | 6.0 | 0.00 | 0.00 | 0.00 | 77 | 1020.3 |
| 20260507011835 | 56 | 142 | 2.0 | 5.0 | 0.00 | 0.00 | 0.00 | 77 | 1020.3 |
| 20260507011332 | 56 | 106 | 0.0 | 6.0 | 0.00 | 0.00 | 0.00 | 77 | 1020.0 |
| 20260507010831 | 56 | 106 | 1.0 | 3.0 | 0.00 | 0.00 | 0.00 | 77 | 1020.2 |
| 20260507010327 | 56 | 103 | 1.0 | 7.0 | 0.00 | 0.00 | 0.00 | 77 | 1020.2 |
| 20260507005825 | 56 | 161 | 2.0 | 10.0 | 0.00 | 0.00 | 0.00 | 77 | 1020.4 |
| 20260507005321 | 57 | 105 | 5.0 | 6.0 | 0.00 | 0.00 | 0.00 | 76 | 1020.3 |
| 20260507004813 | 56 | 102 | 0.0 | 6.0 | 0.00 | 0.00 | 0.00 | 77 | 1020.2 |
| 20260507004310 | 56 | 108 | 5.0 | 8.0 | 0.00 | 0.00 | 0.00 | 77 | 1020.2 |
| 20260507003807 | 56 | 144 | 4.0 | 8.0 | 0.00 | 0.00 | 0.00 | 77 | 1020.3 |
| 20260507003302 | 56 | 137 | 3.0 | 5.0 | 0.00 | 0.00 | 0.00 | 76 | 1020.4 |
| 20260507002757 | 56 | 122 | 3.0 | 6.0 | 0.00 | 0.00 | 0.00 | 76 | 1020.2 |
| 20260507002254 | 56 | 117 | 1.0 | 8.0 | 0.00 | 0.00 | 0.00 | 77 | 1020.2 |
| 20260507001751 | 56 | 100 | 4.0 | 7.0 | 0.00 | 0.00 | 0.00 | 76 | 1020.2 |
| 20260507001248 | 57 | 111 | 7.0 | 9.0 | 0.00 | 0.00 | 0.00 | 76 | 1020.4 |
| 20260507000744 | 57 | 112 | 3.0 | 6.0 | 0.00 | 0.00 | 0.00 | 76 | 1020.2 |
| 20260507000240 | 57 | 129 | 5.0 | 8.0 | 0.00 | 0.00 | 0.00 | 76 | 1020.1 |
| 20260506235737 | 57 | 97 | 4.0 | 8.0 | 0.00 | 0.00 | 0.00 | 76 | 1020.1 |
| 20260506235232 | 56 | 147 | 1.0 | 6.0 | 0.00 | 0.00 | 0.00 | 76 | 1020.3 |
| 20260506234730 | 56 | 200 | 7.0 | 10.0 | 0.00 | 0.00 | 0.00 | 76 | 1020.4 |
| 20260506234227 | 56 | 86 | 1.0 | 5.0 | 0.00 | 0.00 | 0.00 | 76 | 1020.6 |
| 20260506233724 | 56 | 159 | 2.0 | 8.0 | 0.00 | 0.00 | 0.00 | 76 | 1020.6 |
| 20260506233220 | 56 | 136 | 3.0 | 8.0 | 0.00 | 0.00 | 0.00 | 76 | 1020.1 |
| 20260506232717 | 56 | 130 | 3.0 | 8.0 | 0.00 | 0.00 | 0.00 | 76 | 1020.3 |
| 20260506232212 | 56 | 145 | 2.0 | 3.0 | 0.00 | 0.00 | 0.00 | 76 | 1020.3 |
| 20260506231710 | 56 | 137 | 1.0 | 6.0 | 0.00 | 0.00 | 0.00 | 77 | 1020.4 |
| 20260506231208 | 56 | 199 | 2.0 | 7.0 | 0.00 | 0.00 | 0.00 | 76 | 1020.3 |
| 20260506230704 | 56 | 93 | 5.0 | 6.0 | 0.00 | 0.00 | 0.00 | 76 | 1020.3 |
| 20260506230201 | 56 | 101 | 5.0 | 10.0 | 0.00 | 0.00 | 0.00 | 76 | 1020.3 |
| 20260506225658 | 56 | 156 | 3.0 | 5.0 | 0.00 | 0.00 | 0.00 | 75 | 1020.5 |
| 20260506225155 | 56 | 153 | 4.0 | 7.0 | 0.00 | 0.00 | 0.00 | 75 | 1020.3 |
| 20260506224651 | 56 | 91 | 3.0 | 7.0 | 0.00 | 0.00 | 0.00 | 75 | 1020.6 |
| 20260506224148 | 56 | 129 | 4.0 | 7.0 | 0.00 | 0.00 | 0.00 | 76 | 1020.3 |
| 20260506223645 | 56 | 180 | 6.0 | 9.0 | 0.00 | 0.00 | 0.00 | 75 | 1020.5 |
| 20260506223140 | 56 | 191 | 4.0 | 7.0 | 0.00 | 0.00 | 0.00 | 75 | 1020.3 |
| 20260506222637 | 56 | 160 | 3.0 | 7.0 | 0.00 | 0.00 | 0.00 | 74 | 1020.4 |
| 20260506222133 | 57 | 116 | 6.0 | 8.0 | 0.00 | 0.00 | 0.00 | 74 | 1020.4 |
| 20260506221631 | 57 | 111 | 3.0 | 7.0 | 0.00 | 0.00 | 0.00 | 73 | 1020.5 |
| 20260506221129 | 57 | 147 | 2.0 | 6.0 | 0.00 | 0.00 | 0.00 | 73 | 1020.7 |
| 20260506220626 | 57 | 135 | 1.0 | 2.0 | 0.00 | 0.00 | 0.00 | 72 | 1020.4 |
| 20260506220121 | 57 | 165 | 4.0 | 7.0 | 0.00 | 0.00 | 0.00 | 73 | 1020.5 |
| 20260506215618 | 57 | 125 | 7.0 | 8.0 | 0.00 | 0.00 | 0.00 | 72 | 1020.7 |
| 20260506215113 | 57 | 136 | 3.0 | 6.0 | 0.00 | 0.00 | 0.00 | 72 | 1020.7 |
| 20260506214610 | 57 | 145 | 3.0 | 7.0 | 0.00 | 0.00 | 0.00 | 71 | 1020.7 |
| 20260506214108 | 57 | 115 | 5.0 | 8.0 | 0.00 | 0.00 | 0.00 | 71 | 1020.7 |
| 20260506213606 | 57 | 141 | 1.0 | 6.0 | 0.00 | 0.00 | 0.00 | 72 | 1020.5 |
| 20260506213103 | 57 | 152 | 2.0 | 5.0 | 0.00 | 0.00 | 0.00 | 72 | 1020.4 |
| 20260506212600 | 57 | 154 | 3.0 | 6.0 | 0.00 | 0.00 | 0.00 | 71 | 1020.6 |
| 20260506212054 | 57 | 194 | 3.0 | 6.0 | 0.00 | 0.00 | 0.00 | 72 | 1020.8 |
| 20260506211551 | 57 | 109 | 1.0 | 5.0 | 0.00 | 0.00 | 0.00 | 71 | 1020.6 |
| 20260506211048 | 57 | 140 | 5.0 | 8.0 | 0.00 | 0.00 | 0.00 | 71 | 1020.6 |
| 20260506210544 | 57 | 166 | 3.0 | 5.0 | 0.00 | 0.00 | 0.00 | 71 | 1020.8 |
| 20260506210041 | 57 | 139 | 7.0 | 8.0 | 0.00 | 0.00 | 0.00 | 71 | 1020.7 |
| 20260506205538 | 57 | 186 | 4.0 | 7.0 | 0.00 | 0.00 | 0.00 | 71 | 1020.4 |
| 20260506205033 | 57 | 127 | 3.0 | 9.0 | 0.00 | 0.00 | 0.00 | 71 | 1020.6 |
| 20260506204531 | 57 | 152 | 3.0 | 8.0 | 0.00 | 0.00 | 0.00 | 71 | 1021.0 |
| 20260506204028 | 57 | 170 | 3.0 | 6.0 | 0.00 | 0.00 | 0.00 | 71 | 1020.7 |
| 20260506203526 | 57 | 205 | 7.0 | 9.0 | 0.00 | 0.00 | 0.00 | 71 | 1020.3 |
| 20260506203022 | 57 | 86 | 3.0 | 5.0 | 0.00 | 0.00 | 0.00 | 71 | 1020.3 |
| 20260506202520 | 57 | 137 | 3.0 | 8.0 | 0.00 | 0.00 | 0.00 | 72 | 1020.5 |
| 20260506202016 | 57 | 118 | 3.0 | 9.0 | 0.00 | 0.00 | 0.00 | 72 | 1020.6 |
| 20260506201514 | 57 | 173 | 2.0 | 5.0 | 0.00 | 0.00 | 0.00 | 72 | 1020.4 |
| 20260506201010 | 56 | 82 | 1.0 | 3.0 | 0.00 | 0.00 | 0.00 | 72 | 1020.5 |
| 20260506200506 | 56 | 97 | 7.0 | 9.0 | 0.00 | 0.00 | 0.00 | 73 | 1020.4 |
| 20260506200004 | 57 | 158 | 7.0 | 9.0 | 0.00 | 0.00 | 0.00 | 74 | 1020.4 |
| 20260506195501 | 57 | 121 | 4.0 | 5.0 | 0.00 | 0.00 | 0.00 | 74 | 1020.3 |
| 20260506194956 | 56 | 140 | 4.0 | 8.0 | 0.00 | 0.00 | 0.00 | 75 | 1020.4 |
| 20260506194454 | 56 | 135 | 2.0 | 7.0 | 0.00 | 0.00 | 0.00 | 76 | 1020.3 |
| 20260506193950 | 56 | 109 | 3.0 | 5.0 | 0.00 | 0.00 | 0.00 | 76 | 1020.4 |
| 20260506193448 | 55 | 123 | 1.0 | 2.0 | 0.00 | 0.00 | 0.00 | 76 | 1020.4 |
| 20260506192938 | 55 | 174 | 3.0 | 8.0 | 0.00 | 0.00 | 0.00 | 77 | 1020.3 |
| 20260506192435 | 56 | 183 | 4.0 | 8.0 | 0.00 | 0.00 | 0.00 | 77 | 1020.2 |
| 20260506191932 | 55 | 134 | 3.0 | 5.0 | 0.00 | 0.00 | 0.00 | 77 | 1020.1 |
| 20260506191429 | 55 | 169 | 3.0 | 6.0 | 0.00 | 0.00 | 0.00 | 77 | 1020.3 |
| 20260506190926 | 55 | 117 | 5.0 | 9.0 | 0.00 | 0.00 | 0.00 | 79 | 1020.3 |
| 20260506190422 | 55 | 109 | 1.0 | 8.0 | 0.00 | 0.00 | 0.00 | 79 | 1020.3 |
| 20260506185919 | 55 | 128 | 2.0 | 8.0 | 0.00 | 0.00 | 0.00 | 78 | 1020.0 |
| 20260506185416 | 55 | 143 | 4.0 | 6.0 | 0.00 | 0.00 | 0.00 | 78 | 1020.3 |
| 20260506184913 | 55 | 79 | 3.0 | 6.0 | 0.00 | 0.00 | 0.00 | 79 | 1020.2 |
| 20260506184410 | 55 | 97 | 3.0 | 5.0 | 0.00 | 0.00 | 0.00 | 78 | 1020.2 |
| 20260506183907 | 55 | 194 | 4.0 | 7.0 | 0.00 | 0.00 | 0.00 | 80 | 1020.3 |
| 20260506183402 | 55 | 109 | 1.0 | 6.0 | 0.00 | 0.00 | 0.00 | 80 | 1020.3 |
| 20260506182900 | 54 | 94 | 5.0 | 6.0 | 0.00 | 0.00 | 0.00 | 81 | 1020.1 |
| 20260506182357 | 54 | 76 | 4.0 | 6.0 | 0.00 | 0.00 | 0.00 | 82 | 1020.2 |
| 20260506181854 | 54 | 173 | 3.0 | 8.0 | 0.00 | 0.00 | 0.00 | 83 | 1020.4 |
| 20260506181352 | 54 | 137 | 2.0 | 3.0 | 0.00 | 0.00 | 0.00 | 83 | 1020.3 |
| 20260506180849 | 54 | 120 | 1.0 | 6.0 | 0.00 | 0.00 | 0.00 | 85 | 1020.4 |
| 20260506180345 | 54 | 115 | 6.0 | 7.0 | 0.00 | 0.00 | 0.00 | 85 | 1020.2 |
| 20260506175841 | 54 | 153 | 4.0 | 7.0 | 0.00 | 0.00 | 0.00 | 85 | 1020.1 |
| 20260506175338 | 54 | 184 | 3.0 | 6.0 | 0.00 | 0.00 | 0.00 | 85 | 1020.0 |
| 20260506174835 | 54 | 138 | 1.0 | 6.0 | 0.00 | 0.00 | 0.00 | 85 | 1019.7 |
| 20260506174333 | 54 | 127 | 0.0 | 8.0 | 0.00 | 0.00 | 0.00 | 87 | 1019.8 |
| 20260506173830 | 54 | 86 | 4.0 | 7.0 | 0.00 | 0.00 | 0.00 | 86 | 1019.9 |
| 20260506173327 | 54 | 145 | 1.0 | 5.0 | 0.00 | 0.00 | 0.00 | 86 | 1019.8 |
| 20260506172824 | 53 | 99 | 4.0 | 6.0 | 0.00 | 0.00 | 0.00 | 88 | 1019.8 |
| 20260506172321 | 53 | 124 | 3.0 | 8.0 | 0.00 | 0.00 | 0.00 | 89 | 1020.0 |
| 20260506171818 | 53 | 115 | 3.0 | 6.0 | 0.00 | 0.00 | 0.00 | 90 | 1020.1 |
| 20260506171315 | 53 | 89 | 1.0 | 6.0 | 0.00 | 0.00 | 0.00 | 90 | 1020.0 |
| 20260506170813 | 53 | 107 | 5.0 | 9.0 | 0.00 | 0.00 | 0.00 | 90 | 1020.0 |
| 20260506170308 | 53 | 116 | 7.0 | 9.0 | 0.00 | 0.00 | 0.00 | 89 | 1020.0 |
| 20260506165808 | 53 | 103 | 7.0 | 10.0 | 0.00 | 0.00 | 0.00 | 87 | 1019.9 |
| 20260506165306 | 53 | 120 | 5.0 | 10.0 | 0.00 | 0.00 | 0.00 | 87 | 1020.2 |
| 20260506164801 | 53 | 133 | 4.0 | 7.0 | 0.00 | 0.00 | 0.00 | 86 | 1019.9 |
| 20260506164258 | 53 | 95 | 3.0 | 6.0 | 0.00 | 0.00 | 0.00 | 87 | 1019.8 |
| 20260506163755 | 53 | 63 | 2.0 | 5.0 | 0.00 | 0.00 | 0.00 | 88 | 1019.8 |
| 20260506163250 | 53 | 121 | 3.0 | 6.0 | 0.00 | 0.00 | 0.00 | 88 | 1020.2 |
| 20260506162746 | 53 | 134 | 3.0 | 7.0 | 0.00 | 0.00 | 0.00 | 89 | 1019.9 |
| 20260506162244 | 53 | 121 | 2.0 | 7.0 | 0.00 | 0.00 | 0.00 | 89 | 1019.9 |
| 20260506161741 | 53 | 140 | 3.0 | 8.0 | 0.00 | 0.00 | 0.00 | 89 | 1019.9 |
| 20260506161238 | 53 | 104 | 1.0 | 8.0 | 0.00 | 0.00 | 0.00 | 90 | 1019.4 |
| 20260506160736 | 52 | 125 | 4.0 | 7.0 | 0.00 | 0.00 | 0.00 | 90 | 1019.4 |
| 20260506160232 | 52 | 93 | 3.0 | 6.0 | 0.00 | 0.00 | 0.00 | 91 | 1019.4 |
| 20260506155731 | 52 | 111 | 4.0 | 7.0 | 0.00 | 0.00 | 0.00 | 92 | 1019.3 |
| 20260506155227 | 52 | 74 | 6.0 | 8.0 | 0.00 | 0.00 | 0.00 | 92 | 1019.4 |
| 20260506153335 | 52 | 97 | 4.0 | 6.0 | 0.00 | 0.00 | 0.00 | 94 | 1019.5 |
| 20260506152832 | 51 | 149 | 3.0 | 7.0 | 0.00 | 0.00 | 0.00 | 95 | 1019.8 |
| 20260506152329 | 51 | 127 | 3.0 | 6.0 | 0.00 | 0.00 | 0.00 | 95 | 1019.7 |
| 20260506151828 | 51 | 103 | 4.0 | 6.0 | 0.00 | 0.00 | 0.00 | 95 | 1019.7 |
| 20260506151324 | 52 | 98 | 1.0 | 5.0 | 0.00 | 0.00 | 0.00 | 95 | 1019.6 |
| 20260506150821 | 51 | 114 | 1.0 | 1.0 | 0.00 | 0.00 | 0.00 | 96 | 1019.7 |
| 20260506150318 | 52 | 100 | 2.0 | 6.0 | 0.00 | 0.00 | 0.00 | 95 | 1019.4 |
| 20260506145815 | 51 | 89 | 1.0 | 5.0 | 0.00 | 0.00 | 0.00 | 95 | 1019.3 |
| 20260506145311 | 52 | 97 | 4.0 | 8.0 | 0.00 | 0.00 | 0.00 | 95 | 1019.0 |
| 20260506144809 | 52 | 119 | 2.0 | 7.0 | 0.00 | 0.00 | 0.00 | 95 | 1019.3 |
| 20260506144305 | 51 | 131 | 2.0 | 7.0 | 0.00 | 0.00 | 0.00 | 95 | 1019.5 |
| 20260506143803 | 51 | 121 | 3.0 | 6.0 | 0.00 | 0.00 | 0.00 | 95 | 1019.3 |
| 20260506143300 | 51 | 125 | 5.0 | 8.0 | 0.00 | 0.00 | 0.00 | 95 | 1019.4 |
| 20260506142758 | 51 | 119 | 1.0 | 5.0 | 0.00 | 0.00 | 0.00 | 95 | 1019.5 |
| 20260506142256 | 51 | 153 | 5.0 | 6.0 | 0.00 | 0.00 | 0.00 | 94 | 1019.5 |
| 20260506141754 | 51 | 124 | 2.0 | 3.0 | 0.00 | 0.00 | 0.00 | 94 | 1019.4 |
| 20260506141252 | 51 | 124 | 1.0 | 5.0 | 0.00 | 0.00 | 0.00 | 94 | 1019.4 |
| 20260506140749 | 51 | 140 | 1.0 | 2.0 | 0.00 | 0.00 | 0.00 | 94 | 1019.4 |
| 20260506140246 | 51 | 155 | 3.0 | 3.0 | 0.00 | 0.00 | 0.00 | 94 | 1019.4 |
| 20260506135743 | 51 | 105 | 2.0 | 3.0 | 0.00 | 0.00 | 0.00 | 94 | 1019.2 |
| 20260506135239 | 51 | 90 | 3.0 | 5.0 | 0.00 | 0.00 | 0.00 | 94 | 1019.1 |
| 20260506134736 | 51 | 120 | 3.0 | 5.0 | 0.00 | 0.00 | 0.00 | 93 | 1019.2 |
| 20260506134233 | 51 | 149 | 3.0 | 3.0 | 0.00 | 0.00 | 0.00 | 93 | 1019.3 |
| 20260506133730 | 52 | 163 | 4.0 | 5.0 | 0.00 | 0.00 | 0.00 | 92 | 1019.1 |
| 20260506133226 | 52 | 148 | 2.0 | 3.0 | 0.00 | 0.00 | 0.00 | 92 | 1019.4 |
| 20260506132723 | 52 | 92 | 2.0 | 6.0 | 0.00 | 0.00 | 0.00 | 91 | 1018.9 |
| 20260506132221 | 52 | 167 | 3.0 | 3.0 | 0.00 | 0.00 | 0.00 | 91 | 1019.3 |
| 20260506131719 | 52 | 174 | 3.0 | 6.0 | 0.00 | 0.00 | 0.00 | 91 | 1019.0 |
| 20260506131214 | 52 | 149 | 2.0 | 6.0 | 0.00 | 0.00 | 0.00 | 91 | 1019.1 |
| 20260506130711 | 52 | 144 | 2.0 | 5.0 | 0.00 | 0.00 | 0.00 | 91 | 1018.9 |
| 20260506130208 | 52 | 96 | 1.0 | 2.0 | 0.00 | 0.00 | 0.00 | 91 | 1019.2 |
| 20260506125706 | 52 | 161 | 1.0 | 5.0 | 0.00 | 0.00 | 0.00 | 91 | 1018.8 |
| 20260506125204 | 52 | 118 | 2.0 | 5.0 | 0.00 | 0.00 | 0.00 | 91 | 1018.3 |
| 20260506124702 | 52 | 126 | 2.0 | 5.0 | 0.00 | 0.00 | 0.00 | 90 | 1018.5 |
| 20260506124200 | 52 | 125 | 2.0 | 6.0 | 0.00 | 0.00 | 0.00 | 90 | 1018.8 |
| 20260506123657 | 52 | 196 | 2.0 | 3.0 | 0.00 | 0.00 | 0.00 | 90 | 1018.5 |
| 20260506123155 | 52 | 111 | 3.0 | 7.0 | 0.00 | 0.00 | 0.00 | 90 | 1018.8 |
| 20260506122652 | 53 | 168 | 2.0 | 5.0 | 0.00 | 0.00 | 0.00 | 90 | 1018.4 |
| 20260506122149 | 52 | 129 | 2.0 | 6.0 | 0.00 | 0.00 | 0.00 | 90 | 1018.3 |
| 20260506121647 | 52 | 109 | 2.0 | 5.0 | 0.00 | 0.00 | 0.00 | 90 | 1018.4 |
| 20260506121143 | 52 | 129 | 1.0 | 5.0 | 0.00 | 0.00 | 0.00 | 90 | 1018.2 |
| 20260506120641 | 52 | 119 | 4.0 | 5.0 | 0.00 | 0.00 | 0.00 | 90 | 1018.3 |
| 20260506120138 | 52 | 107 | 3.0 | 8.0 | 0.00 | 0.00 | 0.00 | 90 | 1018.3 |
| 20260506115637 | 52 | 115 | 3.0 | 6.0 | 0.00 | 0.00 | 0.00 | 89 | 1018.3 |
| 20260506115134 | 52 | 142 | 3.0 | 3.0 | 0.00 | 0.00 | 0.00 | 89 | 1018.5 |
| 20260506114631 | 52 | 165 | 1.0 | 5.0 | 0.00 | 0.00 | 0.00 | 89 | 1018.3 |
| 20260506114129 | 52 | 159 | 3.0 | 8.0 | 0.00 | 0.00 | 0.00 | 90 | 1018.2 |
| 20260506113628 | 52 | 147 | 4.0 | 8.0 | 0.00 | 0.00 | 0.00 | 89 | 1018.1 |
| 20260506113124 | 52 | 121 | 1.0 | 5.0 | 0.00 | 0.00 | 0.00 | 89 | 1017.9 |
| 20260506112620 | 52 | 104 | 1.0 | 3.0 | 0.00 | 0.00 | 0.00 | 89 | 1017.9 |
| 20260506112118 | 52 | 130 | 2.0 | 5.0 | 0.00 | 0.00 | 0.00 | 90 | 1017.9 |
| 20260506111616 | 52 | 88 | 4.0 | 6.0 | 0.00 | 0.00 | 0.00 | 90 | 1017.9 |
| 20260506111113 | 52 | 64 | 1.0 | 5.0 | 0.00 | 0.00 | 0.00 | 90 | 1017.9 |
| 20260506110610 | 52 | 105 | 1.0 | 2.0 | 0.00 | 0.00 | 0.00 | 90 | 1017.8 |
| 20260506110108 | 52 | 88 | 1.0 | 6.0 | 0.00 | 0.00 | 0.00 | 90 | 1017.9 |
| 20260506105604 | 52 | 119 | 1.0 | 3.0 | 0.00 | 0.00 | 0.00 | 90 | 1017.8 |
| 20260506105101 | 52 | 70 | 2.0 | 6.0 | 0.00 | 0.00 | 0.00 | 90 | 1017.8 |
| 20260506104559 | 52 | 100 | 3.0 | 6.0 | 0.00 | 0.00 | 0.00 | 90 | 1017.6 |
| 20260506104057 | 52 | 127 | 3.0 | 6.0 | 0.00 | 0.00 | 0.00 | 90 | 1017.8 |
| 20260506103554 | 52 | 161 | 2.0 | 3.0 | 0.00 | 0.00 | 0.00 | 90 | 1017.6 |
| 20260506103050 | 52 | 101 | 2.0 | 5.0 | 0.00 | 0.00 | 0.00 | 90 | 1017.9 |
| 20260506102549 | 52 | 105 | 4.0 | 7.0 | 0.00 | 0.00 | 0.00 | 90 | 1017.7 |
| 20260506102046 | 52 | 122 | 4.0 | 7.0 | 0.00 | 0.00 | 0.00 | 90 | 1017.6 |
| 20260506101542 | 52 | 100 | 3.0 | 5.0 | 0.00 | 0.00 | 0.00 | 89 | 1017.4 |
| 20260506101039 | 52 | 137 | 3.0 | 7.0 | 0.00 | 0.00 | 0.00 | 89 | 1017.7 |
| 20260506100538 | 52 | 163 | 5.0 | 8.0 | 0.00 | 0.00 | 0.00 | 89 | 1017.9 |
| 20260506100036 | 52 | 142 | 7.0 | 10.0 | 0.00 | 0.00 | 0.00 | 89 | 1017.6 |
| 20260506095534 | 52 | 159 | 5.0 | 7.0 | 0.00 | 0.00 | 0.00 | 89 | 1017.8 |
| 20260506095030 | 53 | 151 | 5.0 | 8.0 | 0.00 | 0.00 | 0.00 | 89 | 1017.5 |
| 20260506094528 | 53 | 102 | 4.0 | 6.0 | 0.00 | 0.00 | 0.00 | 88 | 1017.6 |
| 20260506094026 | 53 | 117 | 3.0 | 6.0 | 0.00 | 0.00 | 0.00 | 88 | 1017.2 |
| 20260506093524 | 53 | 121 | 3.0 | 5.0 | 0.00 | 0.00 | 0.00 | 88 | 1017.2 |
| 20260506093021 | 53 | 135 | 2.0 | 7.0 | 0.00 | 0.00 | 0.00 | 89 | 1017.1 |
| 20260506092519 | 52 | 157 | 3.0 | 7.0 | 0.00 | 0.00 | 0.00 | 89 | 1017.4 |
| 20260506092015 | 52 | 148 | 2.0 | 6.0 | 0.00 | 0.00 | 0.00 | 88 | 1017.4 |
| 20260506091514 | 53 | 83 | 3.0 | 6.0 | 0.00 | 0.00 | 0.00 | 88 | 1017.1 |
| 20260506091010 | 53 | 54 | 5.0 | 6.0 | 0.00 | 0.00 | 0.00 | 88 | 1017.2 |
| 20260506090508 | 53 | 152 | 3.0 | 7.0 | 0.00 | 0.00 | 0.00 | 88 | 1017.2 |
| 20260506090004 | 53 | 172 | 4.0 | 7.0 | 0.00 | 0.00 | 0.00 | 87 | 1017.1 |
| 20260506085502 | 53 | 136 | 2.0 | 3.0 | 0.00 | 0.00 | 0.00 | 87 | 1017.1 |
| 20260506084958 | 53 | 165 | 2.0 | 3.0 | 0.00 | 0.00 | 0.00 | 87 | 1017.0 |
| 20260506084454 | 53 | 133 | 3.0 | 6.0 | 0.00 | 0.00 | 0.00 | 87 | 1017.1 |
| 20260506083950 | 53 | 99 | 3.0 | 5.0 | 0.00 | 0.00 | 0.00 | 86 | 1017.0 |
| 20260506083448 | 54 | 132 | 2.0 | 7.0 | 0.00 | 0.00 | 0.00 | 86 | 1017.0 |
| 20260506082945 | 54 | 126 | 2.0 | 5.0 | 0.00 | 0.00 | 0.00 | 86 | 1016.9 |
| 20260506082442 | 54 | 126 | 4.0 | 6.0 | 0.00 | 0.00 | 0.00 | 86 | 1016.7 |
| 20260506081938 | 54 | 77 | 5.0 | 7.0 | 0.00 | 0.00 | 0.00 | 86 | 1016.7 |
| 20260506081436 | 54 | 96 | 3.0 | 5.0 | 0.00 | 0.00 | 0.00 | 86 | 1016.6 |
| 20260506080933 | 54 | 96 | 3.0 | 9.0 | 0.00 | 0.00 | 0.00 | 86 | 1016.6 |
| 20260506080430 | 54 | 109 | 4.0 | 6.0 | 0.00 | 0.00 | 0.00 | 86 | 1016.6 |
| 20260506073414 | 55 | 105 | 3.0 | 6.0 | 0.00 | 0.00 | 0.00 | 85 | 1016.4 |
| 20260506072911 | 55 | 93 | 1.0 | 7.0 | 0.00 | 0.00 | 0.00 | 84 | 1016.5 |
| 20260506072409 | 55 | 128 | 3.0 | 8.0 | 0.00 | 0.00 | 0.00 | 84 | 1016.1 |
| 20260506071906 | 55 | 87 | 3.0 | 7.0 | 0.00 | 0.00 | 0.00 | 84 | 1016.5 |
| 20260506071404 | 55 | 118 | 1.0 | 8.0 | 0.00 | 0.00 | 0.00 | 84 | 1016.4 |
| 20260506070901 | 55 | 86 | 3.0 | 6.0 | 0.00 | 0.00 | 0.00 | 83 | 1016.2 |
| 20260506070357 | 55 | 88 | 4.0 | 7.0 | 0.00 | 0.00 | 0.00 | 83 | 1016.6 |
| 20260506062335 | 57 | 128 | 0.0 | 1.0 | 0.00 | 0.00 | 0.00 | 82 | 1016.0 |
| 20260506061830 | 57 | 153 | 0.0 | 2.0 | 0.00 | 0.00 | 0.00 | 82 | 1016.1 |
| 20260506061328 | 57 | 169 | 1.0 | 5.0 | 0.00 | 0.00 | 0.00 | 81 | 1016.0 |
| 20260506060826 | 57 | 165 | 2.0 | 3.0 | 0.00 | 0.00 | 0.00 | 81 | 1016.0 |
| 20260506060323 | 57 | 122 | 1.0 | 3.0 | 0.00 | 0.00 | 0.00 | 81 | 1016.1 |